TimeEST,TemperatureF,Dew PointF,Humidity,Sea Level PressureIn,VisibilityMPH,Wind Direction,Wind SpeedMPH,Gust SpeedMPH,PrecipitationIn,Events,Conditions,WindDirDegrees,DateUTC
12:00 AM,-14.8,-23.8,64,30.19,25.0,Calm,Calm,-,N/A,,Clear,0,2014-01-22 05:00:00
1:00 AM,-14.8,-22.0,70,30.16,25.0,North,3.5,-,N/A,,Clear,360,2014-01-22 06:00:00
2:00 AM,-14.8,-22.0,70,30.15,25.0,NNW,3.5,-,N/A,,Clear,340,2014-01-22 07:00:00
3:00 AM,-16.6,-23.8,70,30.14,25.0,North,2.3,-,N/A,,Clear,10,2014-01-22 08:00:00
4:00 AM,-20.2,-27.4,69,30.13,25.0,Calm,Calm,-,N/A,,Clear,0,2014-01-22 09:00:00
5:00 AM,-18.4,-25.6,70,30.12,25.0,Calm,Calm,-,N/A,,Clear,0,2014-01-22 10:00:00
6:00 AM,-20.2,-27.4,69,30.12,25.0,SW,2.3,-,N/A,,Clear,220,2014-01-22 11:00:00
7:00 AM,-22.0,-29.2,69,30.12,25.0,Calm,Calm,-,N/A,,Partly Cloudy,0,2014-01-22 12:00:00
8:00 AM,-22.0,-27.4,76,30.13,45.0,WNW,2.3,-,N/A,,Partly Cloudy,290,2014-01-22 13:00:00
9:00 AM,-16.6,-23.8,70,30.12,45.0,Calm,Calm,-,N/A,,Partly Cloudy,0,2014-01-22 14:00:00
10:00 AM,-9.4,-20.2,59,30.10,45.0,Calm,Calm,-,N/A,,Partly Cloudy,0,2014-01-22 15:00:00
11:00 AM,-7.6,-20.2,54,30.09,25.0,West,3.5,-,N/A,,Partly Cloudy,270,2014-01-22 16:00:00
12:00 PM,-5.8,-18.4,55,30.04,25.0,West,4.6,-,N/A,,Clear,260,2014-01-22 17:00:00
1:00 PM,-4.0,-18.4,50,30.00,40.0,WSW,6.9,-,N/A,,Partly Cloudy,250,2014-01-22 18:00:00
2:00 PM,-2.2,-16.6,50,29.98,25.0,WSW,12.7,-,N/A,,Partly Cloudy,240,2014-01-22 19:00:00
3:00 PM,-0.4,-16.6,46,29.97,25.0,WSW,9.2,-,N/A,,Scattered Clouds,240,2014-01-22 20:00:00
4:00 PM,-2.2,-16.6,50,29.97,25.0,WSW,9.2,-,N/A,,Mostly Cloudy,240,2014-01-22 21:00:00
5:00 PM,-2.2,-16.6,50,30.00,25.0,WSW,9.2,-,N/A,,Mostly Cloudy,250,2014-01-22 22:00:00
6:00 PM,-4.0,-16.6,55,30.02,25.0,WSW,8.1,-,N/A,,Scattered Clouds,250,2014-01-22 23:00:00
7:00 PM,-4.0,-16.6,55,30.02,25.0,WSW,8.1,-,N/A,,Mostly Cloudy,250,2014-01-23 00:00:00
8:00 PM,-5.8,-16.6,60,30.03,25.0,WSW,6.9,-,N/A,,Mostly Cloudy,250,2014-01-23 01:00:00
9:00 PM,-7.6,-16.6,65,30.03,25.0,WSW,8.1,-,N/A,,Scattered Clouds,240,2014-01-23 02:00:00
10:00 PM,-7.6,-16.6,65,30.03,25.0,WSW,6.9,-,N/A,,Scattered Clouds,250,2014-01-23 03:00:00
11:00 PM,-7.6,-18.4,59,30.03,25.0,WSW,6.9,-,N/A,,Partly Cloudy,250,2014-01-23 04:00:00